Tracking 32140 objects as of 13-Nov-2025
HD Live streaming from Space Station
objects crossing your sky now

STARLINK-34603

Track STARLINK-34603 now!
10-day predictions
STARLINK-34603 is classified as:


NORAD ID: 65220
Int'l Code: 2025-176Y
Perigee: 481.3 km
Apogee: 483.3 km
Inclination: 53.2 °
Period: 94.1 minutes
Semi major axis: 6853 km
RCS: Unknown
Launch date: August 14, 2025
Source: United States (US)
Launch site: AIR FORCE EASTERN TEST RANGE (AFETR)
Your satellite tracking list
Your tracking list is empty




NASA's NSSDC Master Catalog

Two Line Element Set (TLE):
1 65220U 25176Y   25316.34451852  .00062846  00000-0  21140-2 0  9991
2 65220  53.1606 337.8377 0001453  88.2800 271.8367 15.30231870 15151
Source of the keplerian elements: AFSPC